| time (UTC) | temp F | wind direction | speed MPH | gust MPH | rain 1hr in | rain 24hr in | rain mn in | humidity % | barometer mb |
| 20260506161004 | 58 | 66 | 3.0 | 6.0 | 0.00 | 0.19 | 0.19 | 89 | 1002.9 |
| 20260506160501 | 58 | 80 | 1.0 | 3.0 | 0.00 | 0.19 | 0.19 | 88 | 1003.0 |
| 20260506160057 | 58 | 206 | 2.0 | 3.0 | 0.03 | 0.19 | 0.19 | 88 | 1001.6 |
| 20260506155958 | 58 | 84 | 1.0 | 4.0 | 0.00 | 0.19 | 0.19 | 87 | 1002.8 |
| 20260506155457 | 58 | 66 | 2.0 | 4.0 | 0.02 | 0.19 | 0.19 | 88 | 1002.6 |
| 20260506154556 | 58 | 137 | 1.0 | 5.0 | 0.03 | 0.19 | 0.19 | 88 | 1001.4 |
| 20260506153628 | 58 | 222 | 2.0 | 4.0 | 0.02 | 0.18 | 0.18 | 88 | 1002.7 |
| 20260506153125 | 58 | 261 | 3.0 | 6.0 | 0.05 | 0.18 | 0.18 | 88 | 1002.9 |
| 20260506153056 | 58 | 220 | 2.0 | 7.0 | 0.03 | 0.18 | 0.18 | 89 | 1001.6 |
| 20260506152622 | 58 | 252 | 2.0 | 5.0 | 0.07 | 0.18 | 0.18 | 88 | 1002.8 |
| 20260506152120 | 57 | 248 | 2.0 | 8.0 | 0.05 | 0.17 | 0.17 | 89 | 1002.9 |
| 20260506151618 | 58 | 63 | 3.0 | 4.0 | 0.05 | 0.17 | 0.17 | 88 | 1002.9 |
| 20260506151115 | 58 | 60 | 0.0 | 2.0 | 0.02 | 0.17 | 0.17 | 89 | 1002.6 |
| 20260506150612 | 58 | 237 | 1.0 | 2.0 | 0.02 | 0.16 | 0.16 | 89 | 1002.6 |
| 20260506150109 | 58 | 240 | 5.0 | 9.0 | 0.05 | 0.16 | 0.16 | 88 | 1002.8 |
| 20260506150055 | 57 | 230 | 2.0 | 7.0 | 0.01 | 0.16 | 0.16 | 89 | 1001.4 |
| 20260506145605 | 58 | 249 | 4.0 | 8.0 | 0.02 | 0.16 | 0.16 | 88 | 1002.9 |
| 20260506145103 | 57 | 138 | 4.0 | 5.0 | 0.00 | 0.15 | 0.15 | 89 | 1003.0 |
| 20260506144559 | 57 | 89 | 0.0 | 2.0 | 0.00 | 0.15 | 0.15 | 89 | 1002.8 |
| 20260506144555 | 57 | 265 | 1.0 | 6.0 | 0.03 | 0.16 | 0.16 | 90 | 1001.5 |
| 20260506144056 | 57 | 217 | 4.0 | 5.0 | 0.00 | 0.15 | 0.15 | 89 | 1002.6 |
| 20260506143554 | 57 | 236 | 6.0 | 7.0 | 0.00 | 0.15 | 0.15 | 90 | 1002.6 |
| 20260506143056 | 57 | 247 | 3.0 | 5.0 | 0.04 | 0.15 | 0.15 | 92 | 1001.5 |
| 20260506143052 | 57 | 93 | 0.0 | 8.0 | 0.00 | 0.15 | 0.15 | 91 | 1002.9 |
| 20260506142550 | 57 | 124 | 0.0 | 3.0 | 0.02 | 0.15 | 0.15 | 92 | 1002.9 |
| 20260506142048 | 57 | 70 | 0.0 | 3.0 | 0.02 | 0.15 | 0.15 | 92 | 1002.9 |
| 20260506141556 | 56 | 178 | 1.0 | 3.0 | 0.07 | 0.15 | 0.15 | 92 | 1001.4 |
| 20260506141545 | 56 | 75 | 0.0 | 4.0 | 0.00 | 0.15 | 0.15 | 91 | 1002.6 |
| 20260506141043 | 56 | 62 | 3.0 | 4.0 | 0.02 | 0.15 | 0.15 | 91 | 1002.8 |
| 20260506140541 | 56 | 47 | 1.0 | 2.0 | 0.05 | 0.15 | 0.15 | 90 | 1002.7 |
| 20260506140055 | 56 | 240 | 1.0 | 6.0 | 0.09 | 0.15 | 0.15 | 91 | 1001.1 |
| 20260506140038 | 56 | 142 | 0.0 | 2.0 | 0.05 | 0.15 | 0.15 | 91 | 1002.7 |
| 20260506135534 | 56 | 41 | 2.0 | 3.0 | 0.09 | 0.14 | 0.14 | 91 | 1002.8 |
| 20260506135031 | 56 | 80 | 2.0 | 3.0 | 0.09 | 0.13 | 0.13 | 91 | 1002.6 |
| 20260506134554 | 56 | 322 | 0.0 | 2.0 | 0.08 | 0.13 | 0.13 | 91 | 1001.6 |
| 20260506134527 | 56 | 41 | 2.0 | 3.0 | 0.09 | 0.13 | 0.13 | 90 | 1003.0 |
| 20260506134023 | 55 | 77 | 0.0 | 3.0 | 0.07 | 0.12 | 0.12 | 89 | 1003.1 |
| 20260506133521 | 55 | 97 | 1.0 | 2.0 | 0.07 | 0.11 | 0.11 | 90 | 1003.2 |
| 20260506133056 | 55 | 106 | 1.0 | 5.0 | 0.07 | 0.11 | 0.11 | 90 | 1001.8 |
| 20260506133017 | 55 | 96 | 2.0 | 3.0 | 0.09 | 0.11 | 0.11 | 90 | 1003.3 |
| 20260506132514 | 56 | 51 | 3.0 | 4.0 | 0.07 | 0.10 | 0.10 | 89 | 1003.6 |
| 20260506132012 | 55 | 279 | 0.0 | 5.0 | 0.07 | 0.09 | 0.09 | 89 | 1003.6 |
| 20260506131509 | 55 | 56 | 2.0 | 8.0 | 0.09 | 0.09 | 0.09 | 91 | 1003.6 |
| 20260506131005 | 55 | 49 | 2.0 | 4.0 | 0.07 | 0.08 | 0.08 | 94 | 1003.7 |
| 20260506130502 | 55 | 32 | 3.0 | 4.0 | 0.07 | 0.07 | 0.07 | 94 | 1003.6 |
| 20260506130055 | 55 | 226 | 0.0 | 2.0 | 0.03 | 0.06 | 0.06 | 93 | 1002.3 |
| 20260506125959 | 55 | 72 | 2.0 | 3.0 | 0.07 | 0.06 | 0.06 | 94 | 1003.7 |
| 20260506125458 | 55 | 45 | 2.0 | 3.0 | 0.07 | 0.06 | 0.06 | 94 | 1003.9 |
| 20260506124955 | 55 | 70 | 2.0 | 4.0 | 0.05 | 0.05 | 0.05 | 94 | 1003.9 |
| 20260506124555 | 55 | 213 | 1.0 | 2.0 | 0.03 | 0.05 | 0.05 | 93 | 1002.5 |
| 20260506124453 | 55 | 257 | 2.0 | 3.0 | 0.05 | 0.05 | 0.05 | 94 | 1004.0 |
| 20260506123951 | 55 | 63 | 2.0 | 2.0 | 0.02 | 0.04 | 0.04 | 93 | 1004.0 |
| 20260506123448 | 55 | 47 | 2.0 | 3.0 | 0.02 | 0.04 | 0.04 | 93 | 1003.8 |
| 20260506123056 | 55 | 195 | 0.0 | 1.0 | 0.02 | 0.04 | 0.04 | 92 | 1002.0 |
| 20260506122946 | 55 | 37 | 0.0 | 2.0 | 0.02 | 0.04 | 0.04 | 93 | 1003.5 |
| 20260506122443 | 55 | 72 | 0.0 | 2.0 | 0.02 | 0.04 | 0.04 | 92 | 1003.4 |
| 20260506121941 | 55 | 47 | 1.0 | 3.0 | 0.00 | 0.03 | 0.03 | 92 | 1003.2 |
| 20260506121437 | 55 | 52 | 0.0 | 3.0 | 0.02 | 0.03 | 0.03 | 92 | 1003.2 |
| 20260506120934 | 55 | 60 | 2.0 | 3.0 | 0.02 | 0.03 | 0.03 | 92 | 1003.3 |
| 20260506120432 | 55 | 71 | 2.0 | 2.0 | 0.00 | 0.03 | 0.03 | 92 | 1003.4 |
| 20260506120055 | 55 | 195 | 0.0 | 1.0 | 0.02 | 0.03 | 0.03 | 91 | 1001.9 |
| 20260506115929 | 55 | 49 | 2.0 | 3.0 | 0.00 | 0.03 | 0.03 | 92 | 1003.4 |
| 20260506115427 | 55 | 48 | 2.0 | 3.0 | 0.02 | 0.03 | 0.03 | 92 | 1003.4 |
| 20260506114925 | 55 | 42 | 2.0 | 3.0 | 0.02 | 0.03 | 0.03 | 92 | 1003.4 |
| 20260506114556 | 55 | 195 | 0.0 | 1.0 | 0.02 | 0.02 | 0.02 | 90 | 1001.9 |
| 20260506114422 | 55 | 72 | 2.0 | 3.0 | 0.00 | 0.02 | 0.02 | 91 | 1003.4 |
| 20260506113921 | 55 | 70 | 2.0 | 3.0 | 0.00 | 0.02 | 0.02 | 91 | 1003.4 |
| 20260506113418 | 55 | 81 | 2.0 | 3.0 | 0.02 | 0.02 | 0.02 | 91 | 1003.4 |
| 20260506113057 | 56 | 195 | 0.0 | 0.0 | 0.02 | 0.02 | 0.02 | 89 | 1001.9 |
| 20260506112914 | 55 | 60 | 1.0 | 2.0 | 0.02 | 0.02 | 0.02 | 90 | 1003.6 |
| 20260506112412 | 55 | 100 | 1.0 | 2.0 | 0.05 | 0.02 | 0.02 | 90 | 1003.4 |
| 20260506111909 | 55 | 59 | 2.0 | 2.0 | 0.05 | 0.02 | 0.02 | 89 | 1003.5 |
| 20260506111556 | 56 | 195 | 0.0 | 1.0 | 0.01 | 0.01 | 0.01 | 88 | 1001.9 |
| 20260506111407 | 55 | 67 | 2.0 | 2.0 | 0.00 | 0.01 | 0.01 | 89 | 1003.5 |
| 20260506110904 | 55 | 51 | 2.0 | 2.0 | 0.02 | 0.01 | 0.01 | 88 | 1003.6 |
| 20260506110402 | 56 | 41 | 2.0 | 3.0 | 0.05 | 0.01 | 0.01 | 86 | 1003.4 |
| 20260506110055 | 56 | 195 | 0.0 | 1.0 | 0.01 | 0.01 | 0.01 | 85 | 1001.8 |
| 20260506105858 | 56 | 60 | 1.0 | 2.0 | 0.05 | 0.01 | 0.01 | 85 | 1003.3 |
| 20260506105355 | 56 | 50 | 0.0 | 2.0 | 0.02 | 0.00 | 0.00 | 83 | 1003.3 |
| 20260506104852 | 56 | 56 | 1.0 | 2.0 | 0.00 | 0.00 | 0.00 | 83 | 1003.3 |
| 20260506104350 | 56 | 53 | 2.0 | 2.0 | 0.00 | 0.00 | 0.00 | 82 | 1003.3 |
| 20260506103848 | 55 | 64 | 1.0 | 2.0 | 0.00 | 0.00 | 0.00 | 83 | 1003.3 |
| 20260506103345 | 55 | 58 | 2.0 | 2.0 | 0.00 | 0.00 | 0.00 | 84 | 1003.1 |
| 20260506103056 | 56 | 195 | 0.0 | 1.0 | 0.00 | 0.00 | 0.00 | 84 | 1001.4 |
| 20260506102842 | 55 | 66 | 0.0 | 1.0 | 0.00 | 0.00 | 0.00 | 84 | 1003.2 |
| 20260506102340 | 55 | 65 | 0.0 | 2.0 | 0.00 | 0.00 | 0.00 | 84 | 1002.9 |
| 20260506101837 | 55 | 40 | 0.0 | 2.0 | 0.00 | 0.00 | 0.00 | 85 | 1002.8 |
| 20260506101555 | 56 | 195 | 0.0 | 2.0 | 0.00 | 0.00 | 0.00 | 84 | 1001.3 |
| 20260506101333 | 55 | 68 | 1.0 | 2.0 | 0.00 | 0.00 | 0.00 | 84 | 1003.0 |
| 20260506100831 | 55 | 42 | 1.0 | 2.0 | 0.00 | 0.00 | 0.00 | 83 | 1002.9 |
| 20260506100329 | 55 | 10 | 0.0 | 0.0 | 0.00 | 0.00 | 0.00 | 84 | 1002.8 |
| 20260506100056 | 56 | 195 | 1.0 | 2.0 | 0.00 | 0.00 | 0.00 | 83 | 1001.1 |
| 20260506095827 | 55 | 55 | 0.0 | 2.0 | 0.00 | 0.00 | 0.00 | 82 | 1002.7 |
| 20260506095324 | 56 | 66 | 1.0 | 2.0 | 0.00 | 0.00 | 0.00 | 81 | 1002.6 |
| 20260506094821 | 56 | 54 | 2.0 | 2.0 | 0.00 | 0.00 | 0.00 | 81 | 1002.6 |
| 20260506094556 | 56 | 71 | 0.0 | 1.0 | 0.00 | 0.00 | 0.00 | 80 | 1001.1 |
| 20260506094319 | 56 | 47 | 2.0 | 2.0 | 0.00 | 0.00 | 0.00 | 80 | 1002.7 |
| 20260506093817 | 56 | 46 | 2.0 | 2.0 | 0.00 | 0.00 | 0.00 | 79 | 1002.9 |
| 20260506093314 | 56 | 62 | 2.0 | 2.0 | 0.00 | 0.00 | 0.00 | 80 | 1002.8 |
| 20260506093055 | 56 | 71 | 0.0 | 1.0 | 0.00 | 0.00 | 0.00 | 80 | 1001.1 |
| 20260506092812 | 56 | 56 | 2.0 | 2.0 | 0.00 | 0.00 | 0.00 | 80 | 1002.8 |
| 20260506092309 | 56 | 52 | 2.0 | 3.0 | 0.00 | 0.00 | 0.00 | 80 | 1002.6 |
| 20260506091806 | 55 | 49 | 2.0 | 2.0 | 0.00 | 0.00 | 0.00 | 80 | 1002.6 |
| 20260506091555 | 56 | 71 | 0.0 | 2.0 | 0.00 | 0.00 | 0.00 | 81 | 1001.1 |
| 20260506091304 | 56 | 34 | 0.0 | 1.0 | 0.00 | 0.00 | 0.00 | 81 | 1002.7 |
| 20260506090802 | 56 | 55 | 2.0 | 2.0 | 0.00 | 0.00 | 0.00 | 81 | 1002.6 |
| 20260506090258 | 56 | 48 | 2.0 | 2.0 | 0.00 | 0.00 | 0.00 | 81 | 1002.6 |
| 20260506090055 | 56 | 76 | 0.0 | 1.0 | 0.00 | 0.00 | 0.00 | 81 | 1001.0 |
| 20260506085755 | 56 | 55 | 2.0 | 3.0 | 0.00 | 0.00 | 0.00 | 81 | 1002.7 |
| 20260506085251 | 56 | 72 | 2.0 | 2.0 | 0.00 | 0.00 | 0.00 | 81 | 1002.8 |
| 20260506084748 | 56 | 71 | 2.0 | 3.0 | 0.00 | 0.00 | 0.00 | 80 | 1002.6 |
| 20260506084556 | 56 | 76 | 0.0 | 1.0 | 0.00 | 0.00 | 0.00 | 81 | 1001.1 |
| 20260506084244 | 55 | 74 | 2.0 | 3.0 | 0.00 | 0.00 | 0.00 | 80 | 1002.7 |
| 20260506083741 | 55 | 66 | 2.0 | 2.0 | 0.00 | 0.00 | 0.00 | 81 | 1002.9 |
| 20260506083239 | 55 | 54 | 2.0 | 3.0 | 0.00 | 0.00 | 0.00 | 81 | 1002.8 |
| 20260506082736 | 55 | 72 | 1.0 | 3.0 | 0.00 | 0.00 | 0.00 | 81 | 1003.0 |
| 20260506082232 | 55 | 48 | 2.0 | 3.0 | 0.00 | 0.00 | 0.00 | 81 | 1003.1 |
| 20260506081730 | 55 | 50 | 2.0 | 3.0 | 0.00 | 0.00 | 0.00 | 81 | 1003.0 |
| 20260506081556 | 55 | 153 | 0.0 | 1.0 | 0.00 | 0.00 | 0.00 | 81 | 1001.3 |
| 20260506081227 | 55 | 36 | 1.0 | 3.0 | 0.00 | 0.00 | 0.00 | 81 | 1003.0 |
| 20260506080725 | 55 | 59 | 2.0 | 2.0 | 0.00 | 0.00 | 0.00 | 82 | 1002.9 |
| 20260506080221 | 55 | 48 | 1.0 | 3.0 | 0.00 | 0.00 | 0.00 | 82 | 1002.7 |
| 20260506073205 | 55 | 48 | 2.0 | 3.0 | 0.00 | 0.00 | 0.00 | 80 | 1002.7 |
| 20260506073056 | 55 | 228 | 0.0 | 0.0 | 0.00 | 0.00 | 0.00 | 80 | 1001.2 |
| 20260506072702 | 55 | 40 | 0.0 | 2.0 | 0.00 | 0.00 | 0.00 | 80 | 1002.9 |
| 20260506072159 | 55 | 65 | 2.0 | 3.0 | 0.00 | 0.00 | 0.00 | 80 | 1002.8 |
| 20260506071657 | 55 | 45 | 0.0 | 2.0 | 0.00 | 0.00 | 0.00 | 80 | 1003.0 |
| 20260506071155 | 55 | 54 | 2.0 | 2.0 | 0.00 | 0.00 | 0.00 | 79 | 1003.1 |
| 20260506070651 | 55 | 40 | 0.0 | 3.0 | 0.00 | 0.00 | 0.00 | 79 | 1003.2 |
| 20260506070148 | 55 | 53 | 2.0 | 2.0 | 0.00 | 0.00 | 0.00 | 79 | 1003.4 |
| 20260506062125 | 55 | 50 | 1.0 | 2.0 | 0.00 | 0.00 | 0.00 | 79 | 1003.7 |
| 20260506061621 | 55 | 61 | 2.0 | 2.0 | 0.00 | 0.00 | 0.00 | 79 | 1003.9 |
| 20260506061555 | 56 | 228 | 0.0 | 0.0 | 0.00 | 0.00 | 0.00 | 79 | 1001.9 |
| 20260506061119 | 55 | 51 | 2.0 | 2.0 | 0.00 | 0.00 | 0.00 | 79 | 1003.7 |
| 20260506060617 | 55 | 55 | 2.0 | 2.0 | 0.00 | 0.00 | 0.00 | 79 | 1003.6 |
| 20260506060114 | 55 | 52 | 2.0 | 2.0 | 0.00 | 0.00 | 0.00 | 79 | 1003.7 |
| 20260506051046 | 56 | 34 | 1.0 | 1.0 | 0.00 | 0.00 | 0.00 | 76 | 1004.3 |
| 20260506050544 | 56 | 59 | 1.0 | 2.0 | 0.00 | 0.00 | 0.00 | 76 | 1004.4 |
| 20260506045034 | 56 | 63 | 2.0 | 2.0 | 0.00 | 0.00 | 0.00 | 76 | 1004.2 |
| 20260506044555 | 57 | 228 | 0.0 | 0.0 | 0.00 | 0.00 | 0.00 | 75 | 1002.4 |
| 20260506044532 | 56 | 86 | 2.0 | 3.0 | 0.00 | 0.00 | 0.00 | 75 | 1004.2 |
| 20260506044029 | 57 | 46 | 1.0 | 1.0 | 0.00 | 0.00 | 0.00 | 75 | 1004.0 |
| 20260506043526 | 57 | 67 | 0.0 | 2.0 | 0.00 | 0.00 | 0.00 | 73 | 1003.9 |
| 20260506043024 | 57 | 32 | 0.0 | 2.0 | 0.00 | 0.00 | 0.00 | 73 | 1004.1 |
| 20260506042523 | 57 | 56 | 3.0 | 3.0 | 0.00 | 0.00 | 0.00 | 73 | 1004.0 |
| 20260506042021 | 58 | 60 | 2.0 | 2.0 | 0.00 | 0.00 | 0.00 | 72 | 1004.0 |
| 20260506041519 | 57 | 61 | 2.0 | 2.0 | 0.00 | 0.00 | 0.00 | 72 | 1004.2 |
| 20260506041015 | 57 | 67 | 2.0 | 2.0 | 0.00 | 0.00 | 0.00 | 73 | 1004.1 |
| 20260506040514 | 57 | 50 | 1.0 | 2.0 | 0.00 | 0.00 | 0.00 | 73 | 1004.1 |
| 20260506040055 | 58 | 228 | 0.0 | 0.0 | 0.00 | 0.00 | 0.00 | 72 | 1002.4 |
| 20260506040009 | 57 | 48 | 2.0 | 2.0 | 0.00 | 0.00 | 0.00 | 73 | 1004.2 |
| 20260506035506 | 57 | 71 | 2.0 | 2.0 | 0.00 | 0.00 | 0.00 | 73 | 1004.2 |
| 20260506035003 | 57 | 51 | 2.0 | 2.0 | 0.00 | 0.00 | 0.00 | 73 | 1004.3 |
| 20260506034555 | 58 | 228 | 0.0 | 0.0 | 0.00 | 0.00 | 0.00 | 72 | 1002.5 |
| 20260506034500 | 57 | 71 | 1.0 | 2.0 | 0.00 | 0.00 | 0.00 | 73 | 1004.1 |
| 20260506033957 | 57 | 46 | 2.0 | 2.0 | 0.00 | 0.00 | 0.00 | 72 | 1004.2 |
| 20260506033455 | 57 | 38 | 2.0 | 2.0 | 0.00 | 0.00 | 0.00 | 72 | 1004.1 |
| 20260506033056 | 59 | 228 | 0.0 | 0.0 | 0.00 | 0.00 | 0.00 | 70 | 1002.4 |
| 20260506032951 | 58 | 56 | 2.0 | 3.0 | 0.00 | 0.00 | 0.00 | 71 | 1004.1 |
| 20260506032449 | 58 | 58 | 2.0 | 3.0 | 0.00 | 0.00 | 0.00 | 71 | 1004.2 |
| 20260506031945 | 58 | 53 | 2.0 | 2.0 | 0.00 | 0.00 | 0.00 | 71 | 1004.1 |
| 20260506031556 | 60 | 228 | 0.0 | 0.0 | 0.00 | 0.00 | 0.00 | 69 | 1002.3 |
| 20260506031442 | 58 | 58 | 2.0 | 3.0 | 0.00 | 0.00 | 0.00 | 70 | 1003.8 |
| 20260506030940 | 59 | 43 | 2.0 | 2.0 | 0.00 | 0.00 | 0.00 | 70 | 1004.2 |
| 20260506030438 | 59 | 45 | 1.0 | 3.0 | 0.00 | 0.00 | 0.00 | 69 | 1004.1 |
| 20260506030056 | 61 | 228 | 0.0 | 0.0 | 0.00 | 0.00 | 0.00 | 67 | 1002.3 |
| 20260506025934 | 59 | 64 | 2.0 | 3.0 | 0.00 | 0.00 | 0.00 | 69 | 1004.1 |
| 20260506025431 | 60 | 53 | 2.0 | 2.0 | 0.00 | 0.00 | 0.00 | 68 | 1004.0 |
| 20260506024928 | 60 | 52 | 1.0 | 3.0 | 0.00 | 0.00 | 0.00 | 67 | 1004.1 |
| 20260506024556 | 61 | 228 | 0.0 | 0.0 | 0.00 | 0.00 | 0.00 | 65 | 1002.3 |
| 20260506024425 | 60 | 41 | 2.0 | 2.0 | 0.00 | 0.00 | 0.00 | 66 | 1004.0 |
| 20260506023920 | 60 | 56 | 2.0 | 2.0 | 0.00 | 0.00 | 0.00 | 65 | 1004.1 |
| 20260506023418 | 60 | 77 | 0.0 | 2.0 | 0.00 | 0.00 | 0.00 | 65 | 1004.1 |
| 20260506023055 | 62 | 228 | 0.0 | 1.0 | 0.00 | 0.00 | 0.00 | 64 | 1002.3 |
| 20260506022914 | 61 | 46 | 1.0 | 2.0 | 0.00 | 0.00 | 0.00 | 65 | 1004.0 |
| 20260506022412 | 61 | 49 | 2.0 | 2.0 | 0.00 | 0.00 | 0.00 | 64 | 1004.1 |
| 20260506021910 | 61 | 45 | 2.0 | 3.0 | 0.00 | 0.00 | 0.00 | 64 | 1004.1 |
| 20260506021555 | 63 | 228 | 0.0 | 1.0 | 0.00 | 0.00 | 0.00 | 62 | 1002.3 |
| 20260506021407 | 62 | 57 | 1.0 | 2.0 | 0.00 | 0.00 | 0.00 | 64 | 1004.1 |
| 20260506020903 | 62 | 33 | 2.0 | 2.0 | 0.00 | 0.00 | 0.00 | 63 | 1003.9 |
| 20260506020402 | 62 | 48 | 2.0 | 2.0 | 0.00 | 0.00 | 0.00 | 62 | 1004.1 |
| 20260506015859 | 63 | 63 | 2.0 | 2.0 | 0.00 | 0.00 | 0.00 | 61 | 1003.9 |
| 20260506015356 | 63 | 55 | 2.0 | 2.0 | 0.00 | 0.00 | 0.00 | 61 | 1004.0 |
| 20260506014853 | 63 | 58 | 2.0 | 2.0 | 0.00 | 0.00 | 0.00 | 60 | 1003.9 |
| 20260506014556 | 65 | 228 | 0.0 | 0.0 | 0.00 | 0.00 | 0.00 | 57 | 1002.3 |
| 20260506014350 | 64 | 45 | 2.0 | 2.0 | 0.00 | 0.00 | 0.00 | 59 | 1003.9 |
| 20260506013846 | 64 | 60 | 1.0 | 2.0 | 0.00 | 0.00 | 0.00 | 58 | 1003.9 |
| 20260506013344 | 64 | 49 | 2.0 | 2.0 | 0.00 | 0.00 | 0.00 | 57 | 1003.8 |
| 20260506013056 | 66 | 228 | 0.0 | 0.0 | 0.00 | 0.00 | 0.00 | 55 | 1002.2 |
| 20260506012840 | 65 | 37 | 2.0 | 2.0 | 0.00 | 0.00 | 0.00 | 56 | 1003.9 |
| 20260506012337 | 65 | 53 | 2.0 | 2.0 | 0.00 | 0.00 | 0.00 | 55 | 1004.0 |
| 20260506011834 | 65 | 63 | 1.0 | 2.0 | 0.00 | 0.00 | 0.00 | 53 | 1003.7 |
| 20260506011555 | 67 | 228 | 0.0 | 0.0 | 0.00 | 0.00 | 0.00 | 51 | 1002.1 |
| 20260506011331 | 65 | 44 | 2.0 | 2.0 | 0.00 | 0.00 | 0.00 | 53 | 1003.7 |
| 20260506010828 | 66 | 48 | 2.0 | 3.0 | 0.00 | 0.00 | 0.00 | 54 | 1003.6 |
| 20260506010326 | 66 | 62 | 2.0 | 2.0 | 0.00 | 0.00 | 0.00 | 53 | 1003.5 |
| 20260506010055 | 68 | 228 | 0.0 | 0.0 | 0.00 | 0.00 | 0.00 | 49 | 1001.9 |
| 20260506005823 | 67 | 46 | 1.0 | 2.0 | 0.00 | 0.00 | 0.00 | 51 | 1003.5 |
| 20260506005320 | 67 | 50 | 2.0 | 2.0 | 0.00 | 0.00 | 0.00 | 50 | 1003.5 |
| 20260506004816 | 68 | 54 | 1.0 | 2.0 | 0.00 | 0.00 | 0.00 | 47 | 1003.5 |
| 20260506004314 | 68 | 42 | 1.0 | 2.0 | 0.00 | 0.00 | 0.00 | 46 | 1003.1 |
| 20260506003809 | 68 | 53 | 2.0 | 2.0 | 0.00 | 0.00 | 0.00 | 46 | 1003.2 |
| 20260506003306 | 69 | 41 | 1.0 | 2.0 | 0.00 | 0.00 | 0.00 | 46 | 1003.3 |
| 20260506003055 | 70 | 228 | 0.0 | 1.0 | 0.00 | 0.00 | 0.00 | 44 | 1001.6 |
| 20260506002802 | 69 | 39 | 1.0 | 2.0 | 0.00 | 0.00 | 0.00 | 45 | 1003.4 |
| 20260506002259 | 69 | 24 | 0.0 | 2.0 | 0.00 | 0.00 | 0.00 | 44 | 1003.1 |
| 20260506001754 | 70 | 51 | 1.0 | 1.0 | 0.00 | 0.00 | 0.00 | 46 | 1003.4 |
| 20260506001555 | 71 | 228 | 0.0 | 1.0 | 0.00 | 0.00 | 0.00 | 44 | 1001.5 |
| 20260506001252 | 70 | 38 | 1.0 | 2.0 | 0.00 | 0.00 | 0.00 | 46 | 1003.4 |
| 20260506000749 | 70 | 55 | 0.0 | 1.0 | 0.00 | 0.00 | 0.00 | 44 | 1003.2 |
| 20260506000247 | 70 | 37 | 0.0 | 2.0 | 0.00 | 0.00 | 0.00 | 44 | 1003.2 |
| 20260506000055 | 71 | 228 | 0.0 | 1.0 | 0.00 | 0.00 | 0.00 | 42 | 1001.4 |
| 20260505235743 | 70 | 25 | 1.0 | 2.0 | 0.00 | 0.00 | 0.00 | 42 | 1003.1 |
| 20260505235241 | 71 | 37 | 0.0 | 1.0 | 0.00 | 0.00 | 0.00 | 41 | 1003.0 |
| 20260505234737 | 71 | 29 | 0.0 | 2.0 | 0.00 | 0.00 | 0.00 | 42 | 1003.2 |
| 20260505234555 | 72 | 228 | 0.0 | 3.0 | 0.00 | 0.00 | 0.00 | 41 | 1001.3 |
| 20260505234235 | 71 | 62 | 0.0 | 1.0 | 0.00 | 0.00 | 0.00 | 40 | 1002.9 |
| 20260505233731 | 72 | 269 | 0.0 | 2.0 | 0.00 | 0.00 | 0.00 | 40 | 1003.0 |
| 20260505233230 | 71 | 232 | 2.0 | 2.0 | 0.00 | 0.00 | 0.00 | 39 | 1003.0 |
| 20260505233055 | 72 | 233 | 1.0 | 2.0 | 0.00 | 0.00 | 0.00 | 40 | 1001.3 |
| 20260505232726 | 72 | 44 | 0.0 | 1.0 | 0.00 | 0.00 | 0.00 | 41 | 1002.8 |
| 20260505232224 | 72 | 253 | 1.0 | 1.0 | 0.00 | 0.00 | 0.00 | 40 | 1002.9 |
| 20260505231720 | 72 | 27 | 0.0 | 1.0 | 0.00 | 0.00 | 0.00 | 41 | 1003.0 |
| 20260505231219 | 73 | 68 | 1.0 | 2.0 | 0.00 | 0.00 | 0.00 | 39 | 1002.6 |
| 20260505230717 | 73 | 55 | 1.0 | 2.0 | 0.00 | 0.00 | 0.00 | 38 | 1002.6 |
| 20260505230213 | 73 | 81 | 0.0 | 2.0 | 0.00 | 0.00 | 0.00 | 36 | 1002.7 |
| 20260505230056 | 73 | 238 | 1.0 | 3.0 | 0.00 | 0.00 | 0.00 | 36 | 1001.1 |
| 20260505225710 | 73 | 225 | 2.0 | 2.0 | 0.00 | 0.00 | 0.00 | 39 | 1002.8 |
| 20260505225207 | 73 | 322 | 0.0 | 2.0 | 0.00 | 0.00 | 0.00 | 36 | 1002.7 |
| 20260505224702 | 74 | 269 | 0.0 | 2.0 | 0.00 | 0.00 | 0.00 | 37 | 1002.6 |
| 20260505224556 | 74 | 240 | 1.0 | 5.0 | 0.00 | 0.00 | 0.00 | 35 | 1000.9 |
| 20260505224200 | 74 | 230 | 2.0 | 3.0 | 0.00 | 0.00 | 0.00 | 36 | 1002.7 |
| 20260505223658 | 73 | 223 | 3.0 | 6.0 | 0.00 | 0.00 | 0.00 | 36 | 1002.6 |
| 20260505223153 | 74 | 224 | 3.0 | 3.0 | 0.00 | 0.00 | 0.00 | 38 | 1002.5 |
| 20260505223056 | 74 | 234 | 1.0 | 3.0 | 0.00 | 0.00 | 0.00 | 35 | 1000.8 |
| 20260505222649 | 74 | 246 | 1.0 | 1.0 | 0.00 | 0.00 | 0.00 | 37 | 1002.6 |
| 20260505222146 | 74 | 223 | 2.0 | 2.0 | 0.00 | 0.00 | 0.00 | 36 | 1002.3 |
| 20260505221643 | 74 | 242 | 4.0 | 4.0 | 0.00 | 0.00 | 0.00 | 35 | 1002.3 |
| 20260505221555 | 74 | 224 | 1.0 | 5.0 | 0.00 | 0.00 | 0.00 | 36 | 1000.6 |
| 20260505221139 | 74 | 225 | 4.0 | 7.0 | 0.00 | 0.00 | 0.00 | 36 | 1002.3 |
| 20260505220637 | 74 | 354 | 0.0 | 2.0 | 0.00 | 0.00 | 0.00 | 35 | 1002.4 |
| 20260505220135 | 74 | 254 | 2.0 | 4.0 | 0.00 | 0.00 | 0.00 | 35 | 1002.2 |
| 20260505220055 | 74 | 212 | 1.0 | 7.0 | 0.00 | 0.00 | 0.00 | 34 | 1000.6 |
| 20260505215632 | 75 | 267 | 4.0 | 5.0 | 0.00 | 0.00 | 0.00 | 35 | 1002.1 |
| 20260505215130 | 75 | 256 | 2.0 | 9.0 | 0.00 | 0.00 | 0.00 | 35 | 1002.3 |
| 20260505214628 | 75 | 355 | 0.0 | 2.0 | 0.00 | 0.00 | 0.00 | 35 | 1002.1 |
| 20260505214555 | 75 | 133 | 0.0 | 8.0 | 0.00 | 0.00 | 0.00 | 37 | 1000.5 |
| 20260505214125 | 75 | 249 | 3.0 | 13.0 | 0.00 | 0.00 | 0.00 | 34 | 1002.2 |
| 20260505213622 | 75 | 229 | 5.0 | 5.0 | 0.00 | 0.00 | 0.00 | 36 | 1002.1 |
| 20260505213119 | 75 | 255 | 0.0 | 10.0 | 0.00 | 0.00 | 0.00 | 37 | 1002.3 |
| 20260505213056 | 75 | 250 | 5.0 | 10.0 | 0.00 | 0.00 | 0.00 | 35 | 1000.4 |
| 20260505212615 | 75 | 269 | 0.0 | 4.0 | 0.00 | 0.00 | 0.00 | 37 | 1002.2 |
| 20260505212113 | 75 | 286 | 1.0 | 10.0 | 0.00 | 0.00 | 0.00 | 35 | 1002.1 |
| 20260505211609 | 75 | 214 | 5.0 | 5.0 | 0.00 | 0.00 | 0.00 | 36 | 1002.0 |
| 20260505211555 | 76 | 218 | 2.0 | 10.0 | 0.00 | 0.00 | 0.00 | 36 | 1000.3 |
| 20260505211106 | 75 | 269 | 0.0 | 7.0 | 0.00 | 0.00 | 0.00 | 37 | 1002.0 |
| 20260505210603 | 76 | 240 | 6.0 | 10.0 | 0.00 | 0.00 | 0.00 | 35 | 1002.1 |
| 20260505210100 | 76 | 345 | 2.0 | 9.0 | 0.00 | 0.00 | 0.00 | 35 | 1002.1 |
| 20260505210055 | 76 | 231 | 3.0 | 12.0 | 0.00 | 0.00 | 0.00 | 35 | 1000.2 |
| 20260505205558 | 76 | 250 | 6.0 | 10.0 | 0.00 | 0.00 | 0.00 | 35 | 1001.8 |
| 20260505205055 | 76 | 230 | 4.0 | 7.0 | 0.00 | 0.00 | 0.00 | 36 | 1001.9 |
| 20260505204552 | 77 | 222 | 6.0 | 10.0 | 0.00 | 0.00 | 0.00 | 35 | 1002.1 |
| 20260505204049 | 77 | 283 | 0.0 | 9.0 | 0.00 | 0.00 | 0.00 | 34 | 1001.8 |
| 20260505203546 | 78 | 222 | 5.0 | 12.0 | 0.00 | 0.00 | 0.00 | 32 | 1001.8 |
| 20260505203043 | 78 | 293 | 1.0 | 7.0 | 0.00 | 0.00 | 0.00 | 35 | 1001.7 |
| 20260505202539 | 78 | 242 | 1.0 | 3.0 | 0.00 | 0.00 | 0.00 | 35 | 1001.8 |
| 20260505202035 | 76 | 226 | 7.0 | 12.0 | 0.00 | 0.00 | 0.00 | 37 | 1001.9 |
| 20260505201554 | 75 | 197 | 5.0 | 14.0 | 0.00 | 0.00 | 0.00 | 34 | 1000.3 |
| 20260505201532 | 75 | 223 | 7.0 | 14.0 | 0.00 | 0.00 | 0.00 | 36 | 1002.0 |
| 20260505201030 | 75 | 244 | 6.0 | 15.0 | 0.00 | 0.00 | 0.00 | 37 | 1001.9 |
| 20260505200527 | 75 | 44 | 0.0 | 12.0 | 0.00 | 0.00 | 0.00 | 36 | 1001.8 |
| 20260505200056 | 75 | 226 | 3.0 | 14.0 | 0.00 | 0.00 | 0.00 | 36 | 1000.1 |
| 20260505200024 | 75 | 243 | 4.0 | 9.0 | 0.00 | 0.00 | 0.00 | 36 | 1001.8 |
| 20260505195520 | 76 | 228 | 4.0 | 11.0 | 0.00 | 0.00 | 0.00 | 35 | 1001.7 |
| 20260505195018 | 76 | 235 | 5.0 | 9.0 | 0.00 | 0.00 | 0.00 | 37 | 1001.8 |
| 20260505194515 | 76 | 225 | 8.0 | 9.0 | 0.00 | 0.00 | 0.00 | 38 | 1001.8 |
| 20260505194010 | 76 | 247 | 10.0 | 20.0 | 0.00 | 0.00 | 0.00 | 35 | 1001.6 |
| 20260505193508 | 76 | 235 | 10.0 | 13.0 | 0.00 | 0.00 | 0.00 | 33 | 1001.7 |
| 20260505193056 | 77 | 225 | 4.0 | 20.0 | 0.00 | 0.00 | 0.00 | 33 | 1000.0 |
| 20260505193005 | 77 | 252 | 3.0 | 13.0 | 0.00 | 0.00 | 0.00 | 34 | 1001.7 |
| 20260505192503 | 78 | 225 | 7.0 | 12.0 | 0.00 | 0.00 | 0.00 | 34 | 1001.7 |
| 20260505192000 | 79 | 45 | 3.0 | 22.0 | 0.00 | 0.00 | 0.00 | 32 | 1001.6 |
| 20260505191556 | 78 | 225 | 3.0 | 13.0 | 0.00 | 0.00 | 0.00 | 33 | 1000.0 |
| 20260505191459 | 78 | 287 | 2.0 | 11.0 | 0.00 | 0.00 | 0.00 | 34 | 1001.7 |
| 20260505190956 | 78 | 249 | 5.0 | 15.0 | 0.00 | 0.00 | 0.00 | 35 | 1001.8 |
| 20260505190450 | 78 | 251 | 5.0 | 8.0 | 0.00 | 0.00 | 0.00 | 35 | 1001.7 |
| 20260505190055 | 78 | 237 | 6.0 | 13.0 | 0.00 | 0.00 | 0.00 | 33 | 1000.1 |
| 20260505185946 | 78 | 225 | 8.0 | 10.0 | 0.00 | 0.00 | 0.00 | 33 | 1001.9 |
| 20260505185444 | 78 | 229 | 8.0 | 12.0 | 0.00 | 0.00 | 0.00 | 36 | 1002.0 |
| 20260505184940 | 79 | 276 | 3.0 | 13.0 | 0.00 | 0.00 | 0.00 | 35 | 1002.3 |
| 20260505184555 | 77 | 214 | 3.0 | 18.0 | 0.00 | 0.00 | 0.00 | 36 | 1000.5 |
| 20260505184437 | 77 | 252 | 3.0 | 8.0 | 0.00 | 0.00 | 0.00 | 37 | 1002.5 |
| 20260505183933 | 78 | 200 | 5.0 | 15.0 | 0.00 | 0.00 | 0.00 | 36 | 1002.5 |
| 20260505183430 | 77 | 233 | 6.0 | 9.0 | 0.00 | 0.00 | 0.00 | 36 | 1002.3 |
| 20260505182927 | 76 | 322 | 2.0 | 11.0 | 0.00 | 0.00 | 0.00 | 38 | 1002.3 |
| 20260505182424 | 76 | 239 | 5.0 | 14.0 | 0.00 | 0.00 | 0.00 | 35 | 1002.5 |
| 20260505181920 | 77 | 235 | 5.0 | 9.0 | 0.00 | 0.00 | 0.00 | 37 | 1002.6 |
| 20260505181556 | 78 | 232 | 4.0 | 14.0 | 0.00 | 0.00 | 0.00 | 34 | 1000.7 |
| 20260505181418 | 78 | 337 | 2.0 | 11.0 | 0.00 | 0.00 | 0.00 | 35 | 1002.5 |
| 20260505180914 | 79 | 230 | 11.0 | 13.0 | 0.00 | 0.00 | 0.00 | 35 | 1002.7 |
| 20260505180411 | 78 | 245 | 4.0 | 10.0 | 0.00 | 0.00 | 0.00 | 38 | 1002.4 |
| 20260505180055 | 77 | 223 | 4.0 | 14.0 | 0.00 | 0.00 | 0.00 | 34 | 1000.9 |
| 20260505175908 | 78 | 228 | 9.0 | 12.0 | 0.00 | 0.00 | 0.00 | 34 | 1002.6 |
| 20260505175404 | 78 | 244 | 6.0 | 13.0 | 0.00 | 0.00 | 0.00 | 34 | 1002.8 |
| 20260505174900 | 78 | 216 | 7.0 | 12.0 | 0.00 | 0.00 | 0.00 | 34 | 1002.9 |
| 20260505174358 | 77 | 256 | 5.0 | 14.0 | 0.00 | 0.00 | 0.00 | 33 | 1003.0 |
| 20260505173854 | 78 | 224 | 6.0 | 14.0 | 0.00 | 0.00 | 0.00 | 36 | 1003.1 |
| 20260505173350 | 77 | 230 | 11.0 | 14.0 | 0.00 | 0.00 | 0.00 | 35 | 1003.1 |
| 20260505172847 | 78 | 233 | 9.0 | 10.0 | 0.00 | 0.00 | 0.00 | 36 | 1003.0 |
| 20260505172345 | 78 | 230 | 5.0 | 12.0 | 0.00 | 0.00 | 0.00 | 33 | 1002.9 |
| 20260505171844 | 78 | 269 | 6.0 | 7.0 | 0.00 | 0.00 | 0.00 | 38 | 1002.9 |
| 20260505171342 | 77 | 258 | 3.0 | 5.0 | 0.00 | 0.00 | 0.00 | 39 | 1002.6 |
| 20260505170838 | 77 | 7 | 1.0 | 5.0 | 0.00 | 0.00 | 0.00 | 36 | 1002.7 |
| 20260505170335 | 78 | 315 | 1.0 | 5.0 | 0.00 | 0.00 | 0.00 | 36 | 1002.9 |
| 20260505170056 | 77 | 241 | 3.0 | 15.0 | 0.00 | 0.00 | 0.00 | 41 | 1001.2 |
| 20260505165830 | 77 | 255 | 1.0 | 10.0 | 0.00 | 0.00 | 0.00 | 36 | 1003.1 |
| 20260505165326 | 77 | 252 | 7.0 | 19.0 | 0.00 | 0.00 | 0.00 | 39 | 1003.2 |
| 20260505164822 | 77 | 253 | 2.0 | 7.0 | 0.00 | 0.00 | 0.00 | 37 | 1002.9 |
| 20260505164555 | 77 | 220 | 4.0 | 9.0 | 0.00 | 0.00 | 0.00 | 36 | 1001.4 |
| 20260505164319 | 78 | 227 | 8.0 | 10.0 | 0.00 | 0.00 | 0.00 | 37 | 1003.3 |
| 20260505163817 | 77 | 221 | 6.0 | 6.0 | 0.00 | 0.00 | 0.00 | 39 | 1003.3 |
| 20260505163316 | 77 | 232 | 2.0 | 6.0 | 0.00 | 0.00 | 0.00 | 36 | 1003.5 |
| 20260505163055 | 76 | 221 | 3.0 | 18.0 | 0.00 | 0.00 | 0.00 | 38 | 1001.7 |
| 20260505162814 | 77 | 224 | 6.0 | 11.0 | 0.00 | 0.00 | 0.00 | 35 | 1003.5 |
| 20260505162310 | 77 | 236 | 4.0 | 13.0 | 0.00 | 0.00 | 0.00 | 41 | 1003.7 |
| 20260505161807 | 76 | 67 | 2.0 | 6.0 | 0.00 | 0.00 | 0.00 | 40 | 1003.5 |
| 20260505161555 | 76 | 223 | 3.0 | 13.0 | 0.00 | 0.00 | 0.00 | 41 | 1001.8 |
| 20260505161304 | 76 | 37 | 2.0 | 8.0 | 0.00 | 0.00 | 0.00 | 38 | 1003.7 |